Home   Weather   Sankt Augustin   Past weeks

Flag for Germany Past Weather in Sankt Augustin, North Rhine-Westphalia, Germany — Yesterday and Last 2 Weeks

Now
27 °F

Passing clouds.


Feels Like: 23 °F
Forecast: 25 / 37 °F
Wind: 3 mph from South

Location: Koeln / Bonn

Current Time: Dec 4, 2016 at 7:37:21 pm

Latest Report: Dec 4, 2016 at 7:20 pm


Visibility: N/A

Pressure: 30.33 "Hg

Humidity: 80%

Dew Point: 21 °F

Location of Sankt AugustinLocation

Past Weather in Sankt Augustin — Graph

°F

Sankt Augustin Temperature Yesterday

Maximum temperature yesterday: 37 °F (at 1:20 pm)
Minimum temperature yesterday: 23 °F (at 11:50 pm)
Average temperature yesterday: 29 °F

High & Low Weather Summary for the Past Weeks

 TemperatureHumidityPressure
High61 °F (Nov 24, 1:20 pm)100% (Nov 23, 12:20 am)30.57 "Hg (Nov 23, 12:20 am)
Low18 °F (Nov 30, 6:50 am)44% (Nov 25, 3:20 pm)29.39 "Hg (Nov 20, 9:50 am)
Average41 °F82%30.12 "Hg
* Reported Nov 19 6:20 pm — Dec 4 6:20 pm, Sankt Augustin, Weather by CustomWeather, © 2016

Note: Actual official high and low records may vary slightly from our data, if they occured in-between our weather recording intervals... More about our weather records

Advertising

Sankt Augustin Weather History for the Previous 24 Hours

Scroll right to see more
 ConditionsComfort  
Time TempWeatherWind HumidityBarometerVisibility
6:20 pm
Sun, Dec 4
28 °FPassing clouds.3 mph80%30.33 "HgN/A
5:50 pm30 °FClear.3 mph80%30.33 "Hg10 mi
5:20 pm34 °FClear.3 mph75%30.33 "Hg10 mi
4:50 pm36 °FClear.3 mph70%30.33 "Hg10 mi
4:20 pm36 °FSunny.6 mph75%30.33 "Hg10 mi
3:50 pm37 °FSunny.8 mph70%30.30 "Hg10 mi
3:20 pm39 °FSunny.6 mph65%30.30 "Hg10 mi
2:50 pm41 °FPassing clouds.7 mph53%30.30 "HgN/A
2:20 pm41 °FPassing clouds.8 mph53%30.33 "HgN/A
1:50 pm41 °FPassing clouds.7 mph53%30.33 "HgN/A
1:20 pm39 °FPassing clouds.6 mph61%30.33 "HgN/A
12:50 pm39 °FPassing clouds.5 mph65%30.33 "HgN/A
12:20 pm37 °FPassing clouds.8 mph65%30.33 "HgN/A
11:50 am36 °FPassing clouds.7 mph70%30.33 "HgN/A
11:20 am32 °FSunny.6 mph80%30.36 "Hg10 mi
10:50 am30 °FPassing clouds.5 mph86%30.36 "HgN/A
10:20 am28 °FSunny.2 mph93%30.36 "Hg10 mi
9:50 am27 °FSunny.3 mph86%30.36 "Hg10 mi
9:20 am23 °FSunny.3 mph93%30.36 "Hg10 mi
8:50 am21 °FSunny.2 mph93%30.36 "Hg10 mi
8:20 am19 °FPassing clouds.3 mph93%30.33 "HgN/A
7:50 am19 °FClear.1 mph100%30.33 "Hg10 mi
7:20 am21 °FClear.2 mph93%30.33 "Hg10 mi
6:50 am21 °FClear.2 mph93%30.33 "Hg10 mi
6:20 am23 °FPassing clouds.3 mph93%30.33 "HgN/A
5:50 am23 °FClear.2 mph93%30.33 "Hg10 mi
5:20 am21 °FPassing clouds.3 mph93%30.33 "HgN/A
4:50 am21 °FClear.1 mph100%30.33 "Hg10 mi
4:20 am21 °FClear.3 mph93%30.33 "Hg10 mi
3:50 am21 °FClear.2 mph93%30.33 "Hg10 mi
3:20 am21 °FClear.2 mph93%30.33 "Hg10 mi
2:50 am23 °FClear.5 mph93%30.33 "Hg10 mi
2:20 am23 °FClear.3 mph100%30.33 "Hg10 mi
1:50 am21 °FPassing clouds.3 mph100%30.33 "HgN/A
1:20 am23 °FCold.1 mph93%30.33 "Hg4 mi
12:50 am21 °FCold.1 mph100%30.33 "Hg2 mi
12:20 am23 °FCold.3 mph100%30.33 "Hg1 mi
11:50 pm
Sat, Dec 3
23 °FCold.1 mph100%30.33 "Hg1 mi
11:20 pm25 °FIce fog.2 mph100%30.33 "Hg0 mi
10:50 pm25 °FIce fog.2 mph100%30.33 "Hg0 mi
10:20 pm25 °FIce fog.1 mph100%30.33 "Hg0 mi
9:50 pm27 °FIce fog.2 mph100%30.33 "Hg0 mi
9:20 pm27 °FIce fog.1 mph100%30.33 "Hg0 mi
8:50 pm28 °FIce fog.1 mph100%30.30 "Hg0 mi
8:20 pm28 °FIce fog.2 mph100%30.33 "Hg0 mi
7:50 pm28 °FIce fog.5 mph100%30.33 "Hg0 mi
7:20 pm27 °FIce fog.5 mph100%30.33 "Hg0 mi
Weather by CustomWeather, © 2016

See weather overviewHow to use our weather pages